Regional Weather Roundup
Issued by NWS

Home | Current Version | Previous Version | Text Only | Print | Product List | Glossary Off
Versions: 1 2 3 4 5 6 7 8 9 10 11 12 13 14 15 16 17 18 19 20 21 22 23 24 25 26 27 28 29 30 31 32 33 34 35 36 37 38 39 40 41 42 43 44 45 46 47 48 49 50

000
ASUS45 KBOU 312007
RWRCO

WEATHER ROUNDUP FOR COLORADO
NATIONAL WEATHER SERVICE DENVER/BOULDER CO
200 PM MDT WED AUG 31 2016

NOTE: "FAIR" INDICATES FEW OR NO CLOUDS BELOW 12000 FEET WITH NO
SIGNIFICANT WEATHER AND/OR OBSTRUCTIONS TO VISIBILITY.

COZ001>005-013-030-031-312100-
...NORTHWEST COLORADO...

CITY           SKY/WX    TMP DP  RH WIND       PRES   REMARKS
CRAIG          FAIR      86  25  11 VRB5      30.24F
HAYDEN         FAIR      82  30  15 SW8G16    30.27F
MEEKER         FAIR      85  32  15 S10       30.25F
MOUNT WERNER   NOT AVBL
STEAMBOAT SPGS FAIR      81  35  19 SW7       30.28F
WALDEN         FAIR      73  30  20 W6        30.39F
$$

COZ006>008-011-312100-
...WEST CENTRAL VALLEYS...

CITY           SKY/WX    TMP DP  RH WIND       PRES   REMARKS
GRAND JUNCTION FAIR      86  44  23 VRB3      30.16F
MONTROSE       FAIR      84  39  20 N9        30.24F
EAGLE          MOSUNNY   82  37  20 NW8       30.28F
RIFLE          FAIR      86  36  16 CALM      30.19F
DELTA          FAIR      88  43  20 S7        30.19F
NUCLA          FAIR     N/A N/A N/A CALM      30.29S
$$

COZ017>023-064>068-312100-
...SOUTHWEST COLORADO...

CITY           SKY/WX    TMP DP  RH WIND       PRES   REMARKS
DURANGO        FAIR      76  44  32 CALM      30.31F
CORTEZ         CLOUDY    76  51  41 S9        30.26F
PAGOSA SPRINGS FAIR      74  40  29 W8        30.37F THUNDER
TELLURIDE      CLOUDY    67  39  36 SW8       30.50F
WOLF CREEK PAS PTSUNNY   54  37  54 CALM      30.69F
$$

COZ009-010-012-014-032>034-037-058>063-312100-
...CENTRAL COLORADO...

CITY           SKY/WX    TMP DP  RH WIND       PRES   REMARKS
ASPEN          FAIR      78  31  17 NE10      30.35F
BUENA VISTA    FAIR      74  40  30 SE5       30.37F
COPPER MTN     CLOUDY    59  36  41 N5        30.69S
BERTHOUD PASS  FAIR      52  37  58 NE8       30.72S
COTTONWOOD PAS FAIR      72  41  33 E8        30.51F
GUNNISON       FAIR      73  45  35 SW10      30.39F
KREMMLING      FAIR      79  30  17 S8        30.34F
LEADVILLE      PTSUNNY   63  33  32 NW12G18   30.51R
MONARCH PASS   CLOUDY    54  41  62 SW14      30.78S
SALIDA         FAIR      79  36  21 CALM      30.41F
SUNLIGHT       PTSUNNY   61  36  39 E3        30.63S
WILKERSON PASS PTSUNNY   55  37  50 SE3       30.67S
$$

COZ069>075-312100-
...SAN LUIS VALLEY/SANGRE DE CRISTO MOUNTAINS...

CITY           SKY/WX    TMP DP  RH WIND       PRES   REMARKS
ALAMOSA        FAIR      76  41  28 N8        30.35F
LA VETA PASS   TSTM      48  43  81 MISG      30.56S
SAGUACHE       PTSUNNY   72  45  37 CALM      30.39F
$$

COZ035-036-038>040-312100-
...NORTHERN COLORADO FRONT RANGE...

CITY           SKY/WX    TMP DP  RH WIND       PRES   REMARKS
DENVER INTL AP FAIR      77  53  43 VRB7      30.27F
DMNS CITY PARK   N/A     75  54  48 W5        30.26F
AURORA         MOSUNNY   77  55  46 NW6       30.28F
FRONT RANGE AP MOSUNNY   79  54  41 NE6       30.28F
ERIE MUNI ARPT FAIR      74  53  47 CALM      30.27F
BOULDER MUN AP FAIR      73  54  49 E3        30.27F
CENTENNIAL     FAIR      75  55  49 N7        30.28F
BROOMFIELD     PTSUNNY   73  54  49 E8        30.30F
FORT COLLINS   FAIR      75  55  50 CALM      30.24F
LONGMONT       FAIR      75  56  51 E3        30.28F
$$

COZ041-046-047-076>085-087-088-312100-
...PIKES PEAK/PALMER DIVIDE AND SOUTHERN FOOTHILLS...

CITY           SKY/WX    TMP DP  RH WIND       PRES   REMARKS
COLO. SPRINGS  FAIR      75  50  41 SE6       30.33F
A. F. ACADEMY  PTSUNNY   73  51  47 S10       30.33F
SCHRIEVER AFB  NOT AVBL
ELLICOTT       FAIR       1  32 100 S12       30.30  WCI -16
FALCON         FAIR      72  48  42 S3        30.38S
FORT CARSON    FAIR      74  53  48 SE8       30.30F
LIMON          FAIR      77  50  38 S9        30.26F
MONUMENT HILL  FAIR      70  50  49 S9G21     30.38S
TRINIDAD       FAIR      78  46  32 MISG      30.27F
$$

COZ042>045-048>051-090-091-312100-
...NORTHEAST COLORADO...

CITY           SKY/WX    TMP DP  RH WIND       PRES   REMARKS
GREELEY ARPT   FAIR      75  57  53 SW3       30.26F
AKRON          FAIR      77  56  48 E8        30.24F
BURLINGTON     CLOUDY    63  59  87 E10       30.26R
WRAY           NOT AVBL
STERLING       FAIR      81  59  47 SE8       30.21F
HOLYOKE        FAIR      73  66  78 E7        30.25F
FORT MORGAN    FAIR      79  55  42 SE5       30.25F
$$

COZ086-089-092>099-312100-
...SOUTHEAST COLORADO...

CITY           SKY/WX    TMP DP  RH WIND       PRES   REMARKS
PUEBLO         FAIR      81  50  33 E5        30.21F
LA JUNTA       FAIR      83  53  35 CALM      30.19F
LAMAR          FAIR      86  55  34 SE6       30.15F
SPRINGFIELD      N/A     76  59  55 VRB5      30.21F
$$



USA.gov is the U.S. government's official web portal to all federal, state and local government web resources and services.